Weather in Kumasi

Ghana     6°42′42″N   1°38′17″W
temp.,
°C
wind,
m/s
gust,
m/s
humid.,
%
clouds,
%
prec.,
mm/h
press.,
hPa
HPBL,
m
26 july, mon
mon2600:00+21sw26906 0.1 1015207
03:00+20ssw249352 0.0 1014111
06:00+19ssw23957 0.0 1015103
09:00+24ssw347524 0.0 1016636
12:00+29ssw336080 0.1 10141399
15:00+27ssw357470 2.4 10121034
18:00+24ssw25855 3.8 1012233
21:00+22ssw3890100 0.1 1014253
27 july, tue
tue2700:00+22ssw3987100 0.1 1014560
03:00+21sw259289 0.0 1014277
06:00+21ssw2792100 0.1 1015400
09:00+23ssw4778100 0.0 1016737
12:00+27sw4562100 0.1 10151382
15:00+27sw3466100 0.2 10131141
18:00+25ssw257747 0.3 1013226
21:00+22sw258112 0.0 1014115
28 july, wed
wed2800:00+21ssw2787100 0.0 1015245
03:00+20ssw2791100 0.0 1014250
06:00+19sw1294100 0.0 101585
09:00+24sw3673100 0.0 1016686
12:00+27sw3457100 0.0 10151363
15:00+29sw3450100 0.0 10131798
18:00+25sw2465100 0.0 101376
21:00+23ssw246895 0.0 101588
29 july, thu
thu2900:00+21ssw27865 0.0 1014205
03:00+19sw229349 0.0 101472
06:00+19sw01958 0.0 101538
09:00+24sw23728 0.0 1017651
12:00+29ssw235336 0.0 10151525
15:00+31s234591 0.0 10111669
18:00+26sw3763100 0.0 1012384
21:00+23ssw398298 0.1 1015449
30 july, fri
fri3000:00+21ssw279477 0.1 1015283
03:00+20ssw259762 0.0 1014164
06:00+20ssw2398100 0.0 101692
09:00+24ssw3478100 0.0 1017739
12:00+29sw2358100 0.1 10151400
15:00+28ssw3464100 0.1 1012898
18:00+25wsw2576100 0.3 1013125
21:00+24ssw2777100 0.0 1015309